Regional Weather Roundup
Issued by NWS Burlington, VT

Home | Current Version | Previous Version | Text Only | Print | Product List | Glossary On
Versions: 1 2 3 4 5 6 7 8 9 10 11 12 13 14 15 16 17 18 19 20 21 22 23 24 25 26 27 28 29 30 31 32 33 34 35 36 37 38 39 40 41 42 43 44 45 46 47 48 49 50
000
ASUS41 KBTV 301930
RWRBTV
VERMONT REGIONAL WEATHER ROUNDUP
NATIONAL WEATHER SERVICE BURLINGTON VT
300 PM EDT WED JUL 30 2014

NOTE: "FAIR" INDICATES FEW OR NO CLOUDS BELOW 12,000 FEET WITH NO
SIGNIFICANT WEATHER AND/OR OBSTRUCTIONS TO VISIBILITY.

* THESE REPORTS ARE NOT UNDER NWS QUALITY CONTROL AND/OR DO NOT
  REPORT WEATHER SUCH AS PRECIPITATION AND FOG.

VTZ001>019-302000-
_____VERMONT_____


CITY           SKY/WX    TMP DP  RH WIND       PRES   REMARKS
BURLINGTON     PTCLDY    76  48  37 S10       29.96F
MONTPELIER     MOCLDY    71  53  52 W5        30.03F
MORRISVILLE    MOCLDY    73  50  44 S6        30.00S
ST. JOHNSBURY*   N/A     73  45  36 MISG      29.96F
LYNDONVILLE*   MOCLDY    71  45  38 CALM      30.01
MIDDLEBURY*    FAIR      75  48  38 S7        29.97F
RUTLAND*       PTCLDY    72  46  40 SW8       29.98F
SPRINGFIELD    CLOUDY    71  53  52 NE3       29.99F
HIGHGATE*      FAIR      74  54  48 SW8       29.95F
NEWPORT*       CLOUDY    69  50  51 CALM      29.99F
BENNINGTON     PTCLDY    73  51  46 SW6       30.00F
SUTTON*          N/A     72 N/A N/A MISG        N/A
GALLUP MILLS*    N/A     55 N/A N/A MISG        N/A
UNION VILLAGE*   N/A     72 N/A N/A MISG        N/A
MT. MANSFIELD*   N/A     61 N/A N/A S3          N/A

_____LAKE CHAMPLAIN_____


CITY           SKY/WX    TMP DP  RH WIND       PRES   REMARKS
COLCHESTER RF*   N/A     70  57  64 S10         N/A
DIAMOND ISL*     N/A     72  52  49 S12         N/A

$$

NYZ007-026>031-035-052-083-302000-
_____NORTHERN NEW YORK_____


CITY           SKY/WX    TMP DP  RH WIND       PRES   REMARKS
PLATTSBURGH    PTCLDY    73  57  57 SE15      29.95F
SARANAC LAKE   MOCLDY    69  48  47 SW7       29.97F
MASSENA        PTCLDY    73  55  53 S13       29.95F
OGDENSBURG*    PTCLDY    73  57  56 SW12      29.94S
POTSDAM*       MOCLDY    73  57  56 SW10      29.95F
PARISHVILLE*     N/A     68 N/A N/A SW10        N/A
WATERTOWN      PTCLDY    73  58  59 W12       29.94F
FT DRUM        PTCLDY    73  54  49 SW10      29.95F
ALBANY         MOCLDY    76  52  43 S7        29.99F
GLENS FALLS    PTCLDY    74  51  44 VRB7      29.98F

$$
NHZ002-005-011-302000-
_____NEW HAMPSHIRE_____


CITY           SKY/WX    TMP DP  RH WIND       PRES   REMARKS
LEBANON        CLOUDY    72  51  47 W3        29.98F
KEENE          MOCLDY    73  48  40 W7        30.00R
MT WASHINGTON  MOCLDY    48  39  71 SW10        N/A
PLYMOUTH       FAIR      72  51  47 CALM      29.98S
WHITEFIELD     CLOUDY    73  50  44 NW3       29.99F

$$

_____REGIONAL QUEBEC LOCATIONS_____


CITY           SKY/WX    TMP DP  RH WIND       PRES   REMARKS
MONTREAL       MOCLDY    73  52  46 SW7       29.94F
QUEBEC CITY    PTCLDY    73  54  49 VRB3      29.98F
SHERBROOKE     CLOUDY    72  50  46 VRB3      29.98F

_____REGIONAL ONTARIO LOCATIONS_____


CITY           SKY/WX    TMP DP  RH WIND       PRES   REMARKS
OTTAWA         TSTM      64  54  68 W14G24    29.96R FOG

______KEY______
VSB  - VISIBILITY IN MILES
WCI  - WIND CHILL INDEX
HX   - HEAT INDEX
$$
NNNN


USA.gov is the U.S. government's official web portal to all federal, state and local government web resources and services.